Weather History for KMLS - August, 2013

Change the Weather History Date:

Friday, August 2, 2013

  Actual Average Record
Temperature  
Mean Temperature 69 °F 75 °F  
Max Temperature 78 °F 90 °F 103 °F (1947)
Min Temperature 59 °F 61 °F 48 °F (2006)
Degree Days  
Heating Degree Days 0 0  
Month to date heating degree days 0 0  
Since 1 June heating degree days 59 101  
Since 1 July heating degree days 0 12  
Cooling Degree Days 4 11  
Month to date cooling degree days 12 22  
Year to date cooling degree days 437 437  
Since 1 June cooling degree days 424 417  
Growing Degree Days 18 (Base 50)    
Moisture  
Dew Point 57 °F    
Average Humidity 72    
Maximum Humidity 90    
Minimum Humidity 54    
Precipitation  
Precipitation 0.21 in 0.04 in 1.64 in (1943)
Month to date precipitation 0.48 0.08  
Year to date precipitation 12.60 8.93  
Sea Level Pressure  
Sea Level Pressure 29.96 in    
Wind  
Wind Speed 10 mph (ENE)    
Max Wind Speed 24 mph    
Max Gust Speed 31 mph    
Visibility 10 miles    
Events Rain    
T = Trace of Precipitation, MM = Missing Value Source: NWS Daily Summary

Daily Weather History Graph

Daily Weather History Graph

Search for Another Location

Airport or City:

Trip Planner

Search our weather history database for the weather conditions in past years. The results will help you decide how hot, cold, wet, or windy it might be!

Date:

Astronomy

Aug. 02, 2013 Rise Set
Actual Time 5:46 AM MDT 8:32 PM MDT
Civil Twilight 5:11 AM MDT 9:07 PM MDT
Nautical Twilight 4:27 AM MDT 9:50 PM MDT
Astronomical Twilight 3:35 AM MDT 10:42 PM MDT
Moon 2:06 AM MDT (8/2) 5:34 PM MDT (8/2)
Length of Visible Light 15h 55m
Length of Day
14h 46m
Waning Crescent, 15% of the Moon is Illuminated
Aug 2
Waning Crescent
Aug 6
New
Aug 14
First Quarter
Aug 20
Full
Aug 28
Last Quarter

Hourly Weather History & Observations

Time (MDT) Temp. Dew Point Humidity Pressure Visibility Wind Dir Wind Speed Gust Speed Precip Events Conditions
12:53 AM 63.0 °F 55.9 °F 78% 29.88 in 10.0 mi ENE 12.7 mph - 0.01 in   Clear
1:53 AM 61.0 °F 57.0 °F 87% 29.91 in 10.0 mi NE 10.4 mph - N/A   Clear
2:53 AM 61.0 °F 55.9 °F 83% 29.88 in 10.0 mi NE 12.7 mph 20.7 mph N/A   Clear
3:53 AM 61.0 °F 57.0 °F 87% 29.98 in 5.0 mi NNE 3.5 mph - 0.02 in Rain Rain
4:53 AM 60.1 °F 55.9 °F 86% 29.87 in 7.0 mi East 21.9 mph 27.6 mph 0.17 in Rain Rain
5:53 AM 61.0 °F 55.0 °F 81% 29.94 in 10.0 mi Calm Calm - 0.01 in   Clear
6:53 AM 60.1 °F 57.0 °F 90% 29.96 in 10.0 mi NE 3.5 mph - N/A   Partly Cloudy
7:53 AM 61.0 °F 57.0 °F 87% 29.94 in 10.0 mi ESE 6.9 mph - 0.01 in   Mostly Cloudy
8:53 AM 64.0 °F 57.9 °F 80% 29.92 in 10.0 mi East 5.8 mph - N/A   Clear
9:17 AM 64.4 °F 57.2 °F 77% 29.97 in 10.0 mi ESE 6.9 mph - N/A   Mostly Cloudy
9:53 AM 64.9 °F 57.0 °F 75% 29.93 in 10.0 mi SSE 11.5 mph - N/A   Overcast
10:53 AM 68.0 °F 57.9 °F 70% 29.95 in 10.0 mi SE 6.9 mph - N/A   Mostly Cloudy
11:04 AM 69.8 °F 57.2 °F 64% 29.98 in 10.0 mi SE 6.9 mph - N/A   Partly Cloudy
11:37 AM 69.8 °F 57.2 °F 64% 29.99 in 10.0 mi East 5.8 mph - N/A   Mostly Cloudy
11:53 AM 70.0 °F 57.9 °F 65% 29.96 in 10.0 mi ENE 6.9 mph - N/A   Overcast
12:16 PM 69.8 °F 57.2 °F 64% 30.00 in 10.0 mi ENE 9.2 mph - N/A   Overcast
12:53 PM 72.0 °F 57.9 °F 61% 29.95 in 10.0 mi NE 15.0 mph - N/A   Overcast
1:53 PM 73.9 °F 59.0 °F 59% 29.94 in 10.0 mi ENE 12.7 mph - N/A   Mostly Cloudy
2:53 PM 73.9 °F 57.9 °F 57% 29.95 in 10.0 mi NE 11.5 mph - N/A   Overcast
3:53 PM 75.9 °F 57.9 °F 54% 29.94 in 10.0 mi Variable 4.6 mph - N/A   Mostly Cloudy
4:53 PM 77.0 °F 59.0 °F 54% 29.93 in 10.0 mi NE 4.6 mph - N/A   Overcast
5:53 PM 77.0 °F 59.0 °F 54% 29.93 in 10.0 mi NNE 12.7 mph - N/A   Mostly Cloudy
7:53 PM 66.9 °F 57.9 °F 73% 29.98 in 10.0 mi NNE 16.1 mph - N/A   Mostly Cloudy
8:53 PM 64.0 °F 57.0 °F 78% 30.00 in 10.0 mi NNE 15.0 mph - N/A   Mostly Cloudy
9:53 PM 63.0 °F 55.9 °F 78% 30.03 in 10.0 mi ENE 13.8 mph - N/A   Mostly Cloudy
10:53 PM 61.0 °F 55.9 °F 83% 30.04 in 10.0 mi NE 6.9 mph - N/A   Clear
11:53 PM 59.0 °F 55.0 °F 87% 30.06 in 10.0 mi NNE 12.7 mph - N/A   Clear